CZ-2C DEB (53129 NORAD) Tracking and Keplerian Element Data

This shows tracking and keplerian element data for the satellite.

Feedback or suggestion? Click here.




ElementValue
Catalog53129
NameCZ-2C DEB
Epoch Orbit1115
Epoch Day270.03626097
Epoch Year2022
RAAN277.1958
Inclination97.3856
Eccentricity0.0013396
Argument of Perigee30.514
Mean Anonmoly329.6877
Mean Motion15.27962105
Decay Rate0.00029295
L11 53129U 22082B 22270.03626097 .00029295 00000+0 10706-2 0 9992
L22 53129 97.3856 277.1958 0013396 30.5140 329.6877 15.27962105 11152

Live tracking and technical data element details for CZ-2C DEB (NORAD 53129). CZ-2C DEB can be tracked NOW for your location showing map with azimuth and elevation plus other details from your city location.

Track the satellite on the map from your city or location and see movement details for azimuth, elevation, latitude, longitude, range, height, and movement on the map or in text.







IsCatalogInMostPopularTable: catalog: 53129, numindb: 5
Update: records affected: 1



GetName: 53129 CZ-2C DEB

Hit Count: updated at: Thu, 29 Sep 2022 12:25:47 GMT